| time (UTC) | temp F | wind direction | speed MPH | gust MPH | rain 1hr in | rain 24hr in | rain mn in | humidity % | barometer mb |
| 20260504110503 | 53 | 191 | 0.0 | 0.0 | 0.00 | 0.00 | 0.00 | 83 | 1016.9 |
| 20260504100503 | 53 | 191 | 0.0 | 0.0 | 0.00 | 0.00 | 0.00 | 83 | 1016.9 |
| 20260504082004 | 53 | 191 | 0.0 | 0.0 | 0.00 | 0.00 | 0.00 | 83 | 1016.9 |
| 20260504081503 | 53 | 191 | 0.0 | 0.0 | 0.00 | 0.00 | 0.00 | 83 | 1016.9 |
| 20260504081024 | 53 | 191 | 0.0 | 0.0 | 0.00 | 0.00 | 0.00 | 83 | 1016.9 |
| 20260504080503 | 53 | 191 | 0.0 | 0.0 | 0.00 | 0.00 | 0.00 | 83 | 1016.9 |
| 20260504050503 | 53 | 191 | 0.0 | 0.0 | 0.00 | 0.00 | 0.00 | 83 | 1016.9 |
| 20260504050003 | 53 | 191 | 0.0 | 0.0 | 0.00 | 0.00 | 0.00 | 83 | 1016.9 |
| 20260504045503 | 53 | 191 | 0.0 | 5.0 | 0.00 | 0.00 | 0.00 | 83 | 1016.9 |
| 20260504045004 | 53 | 191 | 0.0 | 5.0 | 0.00 | 0.00 | 0.00 | 83 | 1016.9 |
| 20260504044503 | 53 | 178 | 0.0 | 4.0 | 0.00 | 0.00 | 0.00 | 83 | 1016.9 |
| 20260504044004 | 53 | 260 | 0.0 | 0.0 | 0.00 | 0.00 | 0.00 | 83 | 1016.9 |
| 20260504043503 | 53 | 260 | 0.0 | 0.0 | 0.00 | 0.00 | 0.00 | 83 | 1016.9 |
| 20260504043003 | 53 | 260 | 0.0 | 0.0 | 0.00 | 0.00 | 0.00 | 82 | 1016.9 |
| 20260504042504 | 53 | 260 | 0.0 | 0.0 | 0.00 | 0.00 | 0.00 | 82 | 1017.0 |
| 20260504042004 | 53 | 260 | 0.0 | 0.0 | 0.00 | 0.00 | 0.00 | 82 | 1016.9 |
| 20260504041503 | 53 | 260 | 0.0 | 0.0 | 0.00 | 0.00 | 0.00 | 82 | 1016.7 |
| 20260504041004 | 53 | 260 | 0.0 | 0.0 | 0.00 | 0.00 | 0.00 | 82 | 1016.6 |
| 20260504040503 | 53 | 260 | 0.0 | 0.0 | 0.00 | 0.00 | 0.00 | 83 | 1016.6 |
| 20260504040004 | 53 | 260 | 0.0 | 0.0 | 0.00 | 0.00 | 0.00 | 82 | 1016.7 |
| 20260504035504 | 52 | 260 | 0.0 | 0.0 | 0.00 | 0.00 | 0.00 | 83 | 1016.7 |
| 20260504035004 | 52 | 260 | 0.0 | 0.0 | 0.00 | 0.00 | 0.00 | 83 | 1016.8 |
| 20260504034503 | 52 | 260 | 0.0 | 0.0 | 0.00 | 0.00 | 0.00 | 82 | 1016.9 |
| 20260504034004 | 52 | 260 | 0.0 | 0.0 | 0.00 | 0.00 | 0.00 | 82 | 1016.9 |
| 20260504033504 | 52 | 260 | 0.0 | 0.0 | 0.00 | 0.00 | 0.00 | 82 | 1017.0 |
| 20260504033004 | 52 | 260 | 0.0 | 0.0 | 0.00 | 0.00 | 0.00 | 81 | 1017.0 |
| 20260504032525 | 52 | 260 | 0.0 | 0.0 | 0.00 | 0.00 | 0.00 | 81 | 1017.1 |
| 20260504032004 | 52 | 260 | 0.0 | 0.0 | 0.00 | 0.00 | 0.00 | 80 | 1017.4 |
| 20260504031526 | 52 | 260 | 0.0 | 0.0 | 0.00 | 0.00 | 0.00 | 80 | 1017.5 |
| 20260504031005 | 52 | 260 | 0.0 | 0.0 | 0.00 | 0.00 | 0.00 | 80 | 1017.5 |
| 20260504030503 | 52 | 260 | 0.0 | 0.0 | 0.00 | 0.00 | 0.00 | 80 | 1017.5 |
| 20260504030024 | 52 | 260 | 0.0 | 0.0 | 0.00 | 0.00 | 0.00 | 79 | 1017.6 |
| 20260504025524 | 53 | 260 | 0.0 | 0.0 | 0.00 | 0.00 | 0.00 | 79 | 1017.6 |
| 20260504025024 | 53 | 260 | 0.0 | 0.0 | 0.00 | 0.00 | 0.00 | 78 | 1017.6 |
| 20260504024503 | 53 | 260 | 0.0 | 0.0 | 0.00 | 0.00 | 0.00 | 78 | 1017.5 |
| 20260504024025 | 53 | 260 | 0.0 | 0.0 | 0.00 | 0.00 | 0.00 | 78 | 1017.5 |
| 20260504023504 | 53 | 260 | 0.0 | 0.0 | 0.00 | 0.00 | 0.00 | 77 | 1017.4 |
| 20260504023003 | 53 | 260 | 0.0 | 0.0 | 0.00 | 0.00 | 0.00 | 77 | 1017.4 |
| 20260504022524 | 54 | 260 | 0.0 | 0.0 | 0.00 | 0.00 | 0.00 | 77 | 1017.4 |
| 20260504022004 | 54 | 260 | 0.0 | 0.0 | 0.00 | 0.00 | 0.00 | 77 | 1017.4 |
| 20260504021504 | 54 | 260 | 0.0 | 0.0 | 0.00 | 0.00 | 0.00 | 76 | 1017.2 |
| 20260504021004 | 54 | 260 | 0.0 | 0.0 | 0.00 | 0.00 | 0.00 | 74 | 1017.2 |
| 20260504020503 | 54 | 260 | 0.0 | 0.0 | 0.00 | 0.00 | 0.00 | 74 | 1017.1 |
| 20260504020003 | 55 | 260 | 0.0 | 0.0 | 0.00 | 0.00 | 0.00 | 74 | 1017.0 |
| 20260504015503 | 55 | 260 | 0.0 | 0.0 | 0.00 | 0.00 | 0.00 | 72 | 1017.0 |
| 20260504015004 | 55 | 260 | 0.0 | 0.0 | 0.00 | 0.00 | 0.00 | 72 | 1016.9 |
| 20260504014503 | 55 | 260 | 0.0 | 0.0 | 0.00 | 0.00 | 0.00 | 71 | 1016.8 |
| 20260504014024 | 55 | 260 | 0.0 | 0.0 | 0.00 | 0.00 | 0.00 | 70 | 1016.7 |
| 20260504013503 | 56 | 260 | 0.0 | 0.0 | 0.00 | 0.00 | 0.00 | 69 | 1016.6 |
| 20260504013003 | 56 | 260 | 0.0 | 0.0 | 0.00 | 0.00 | 0.00 | 69 | 1016.5 |
| 20260504012503 | 56 | 260 | 0.0 | 0.0 | 0.00 | 0.00 | 0.00 | 68 | 1016.4 |
| 20260504012005 | 57 | 260 | 0.0 | 0.0 | 0.00 | 0.00 | 0.00 | 68 | 1016.4 |
| 20260504011503 | 57 | 260 | 0.0 | 0.0 | 0.00 | 0.00 | 0.00 | 67 | 1016.4 |
| 20260504011024 | 57 | 260 | 0.0 | 0.0 | 0.00 | 0.00 | 0.00 | 66 | 1016.3 |
| 20260504010503 | 58 | 260 | 0.0 | 0.0 | 0.00 | 0.00 | 0.00 | 66 | 1016.3 |
| 20260504010004 | 59 | 260 | 0.0 | 0.0 | 0.00 | 0.00 | 0.00 | 64 | 1016.3 |
| 20260504005504 | 59 | 260 | 0.0 | 0.0 | 0.00 | 0.00 | 0.00 | 63 | 1016.4 |
| 20260504005046 | 60 | 260 | 0.0 | 0.0 | 0.00 | 0.00 | 0.00 | 62 | 1016.4 |
| 20260504004503 | 60 | 260 | 0.0 | 0.0 | 0.00 | 0.00 | 0.00 | 60 | 1016.3 |
| 20260504004003 | 61 | 260 | 0.0 | 0.0 | 0.00 | 0.00 | 0.00 | 59 | 1016.3 |
| 20260504003504 | 61 | 260 | 0.0 | 0.0 | 0.00 | 0.00 | 0.00 | 59 | 1016.3 |
| 20260504003003 | 62 | 260 | 0.0 | 0.0 | 0.00 | 0.00 | 0.00 | 58 | 1016.3 |
| 20260504002504 | 63 | 260 | 0.0 | 0.0 | 0.00 | 0.00 | 0.00 | 56 | 1016.3 |
| 20260504002003 | 64 | 260 | 0.0 | 0.0 | 0.00 | 0.00 | 0.00 | 55 | 1016.5 |
| 20260504001503 | 65 | 260 | 0.0 | 0.0 | 0.00 | 0.00 | 0.00 | 54 | 1016.5 |
| 20260504001003 | 65 | 260 | 0.0 | 2.0 | 0.00 | 0.00 | 0.00 | 52 | 1016.5 |
| 20260504000503 | 66 | 260 | 0.0 | 2.0 | 0.00 | 0.00 | 0.00 | 51 | 1016.5 |
| 20260504000003 | 66 | 259 | 0.0 | 2.0 | 0.00 | 0.00 | 0.00 | 50 | 1016.5 |
| 20260503235503 | 67 | 309 | 0.0 | 6.0 | 0.00 | 0.00 | 0.00 | 50 | 1016.6 |
| 20260503235003 | 67 | 309 | 0.0 | 10.0 | 0.00 | 0.00 | 0.00 | 49 | 1016.6 |
| 20260503234504 | 67 | 311 | 6.0 | 10.0 | 0.00 | 0.00 | 0.00 | 49 | 1016.6 |
| 20260503234004 | 67 | 271 | 0.0 | 6.0 | 0.00 | 0.00 | 0.00 | 48 | 1016.6 |
| 20260503233504 | 67 | 336 | 0.0 | 7.0 | 0.00 | 0.00 | 0.00 | 49 | 1016.7 |
| 20260503233004 | 67 | 39 | 1.0 | 8.0 | 0.00 | 0.00 | 0.00 | 49 | 1016.7 |
| 20260503232503 | 67 | 297 | 4.0 | 8.0 | 0.00 | 0.00 | 0.00 | 48 | 1016.7 |
| 20260503231525 | 68 | 230 | 4.0 | 12.0 | 0.00 | 0.00 | 0.00 | 47 | 1016.8 |
| 20260503231003 | 68 | 289 | 4.0 | 12.0 | 0.00 | 0.00 | 0.00 | 48 | 1016.9 |
| 20260503230503 | 68 | 295 | 6.0 | 12.0 | 0.00 | 0.00 | 0.00 | 47 | 1016.8 |
| 20260503230003 | 68 | 275 | 5.0 | 11.0 | 0.00 | 0.00 | 0.00 | 47 | 1016.8 |
| 20260503225525 | 68 | 330 | 5.0 | 11.0 | 0.00 | 0.00 | 0.00 | 48 | 1016.9 |
| 20260503225003 | 68 | 327 | 6.0 | 12.0 | 0.00 | 0.00 | 0.00 | 48 | 1016.9 |
| 20260503224504 | 68 | 324 | 4.0 | 12.0 | 0.00 | 0.00 | 0.00 | 40 | 1016.9 |
| 20260503224004 | 68 | 313 | 6.0 | 10.0 | 0.00 | 0.00 | 0.00 | 40 | 1016.9 |
| 20260503223503 | 68 | 247 | 6.0 | 11.0 | 0.00 | 0.00 | 0.00 | 39 | 1016.9 |
| 20260503222504 | 69 | 345 | 3.0 | 11.0 | 0.00 | 0.00 | 0.00 | 41 | 1017.0 |
| 20260503222004 | 68 | 297 | 5.0 | 11.0 | 0.00 | 0.00 | 0.00 | 42 | 1017.1 |
| 20260503221503 | 68 | 306 | 3.0 | 9.0 | 0.00 | 0.00 | 0.00 | 42 | 1017.1 |
| 20260503221003 | 68 | 300 | 6.0 | 9.0 | 0.00 | 0.00 | 0.00 | 42 | 1017.4 |
| 20260503220525 | 68 | 335 | 2.0 | 10.0 | 0.00 | 0.00 | 0.00 | 42 | 1017.4 |
| 20260503220004 | 68 | 287 | 3.0 | 10.0 | 0.00 | 0.00 | 0.00 | 42 | 1017.4 |
| 20260503215503 | 68 | 283 | 3.0 | 11.0 | 0.00 | 0.00 | 0.00 | 43 | 1017.2 |
| 20260503215003 | 68 | 305 | 5.0 | 13.0 | 0.00 | 0.00 | 0.00 | 42 | 1017.2 |
| 20260503214524 | 68 | 310 | 5.0 | 13.0 | 0.00 | 0.00 | 0.00 | 42 | 1017.4 |
| 20260503214003 | 68 | 294 | 5.0 | 15.0 | 0.00 | 0.00 | 0.00 | 42 | 1017.5 |
| 20260503213503 | 68 | 308 | 8.0 | 15.0 | 0.00 | 0.00 | 0.00 | 41 | 1017.5 |
| 20260503213004 | 68 | 305 | 4.0 | 11.0 | 0.00 | 0.00 | 0.00 | 42 | 1017.5 |
| 20260503212504 | 68 | 339 | 7.0 | 11.0 | 0.00 | 0.00 | 0.00 | 42 | 1017.7 |
| 20260503212003 | 68 | 272 | 5.0 | 11.0 | 0.00 | 0.00 | 0.00 | 42 | 1017.7 |
| 20260503211504 | 68 | 223 | 5.0 | 14.0 | 0.00 | 0.00 | 0.00 | 41 | 1017.8 |
| 20260503211004 | 68 | 295 | 4.0 | 14.0 | 0.00 | 0.00 | 0.00 | 42 | 1017.8 |
| 20260503210503 | 68 | 303 | 2.0 | 14.0 | 0.00 | 0.00 | 0.00 | 42 | 1017.8 |
| 20260503205503 | 68 | 274 | 4.0 | 10.0 | 0.00 | 0.00 | 0.00 | 44 | 1017.8 |
| 20260503205004 | 68 | 239 | 6.0 | 10.0 | 0.00 | 0.00 | 0.00 | 43 | 1017.9 |
| 20260503204503 | 68 | 291 | 6.0 | 13.0 | 0.00 | 0.00 | 0.00 | 43 | 1017.9 |
| 20260503204003 | 68 | 331 | 6.0 | 13.0 | 0.00 | 0.00 | 0.00 | 44 | 1018.0 |
| 20260503203525 | 68 | 293 | 5.0 | 10.0 | 0.00 | 0.00 | 0.00 | 44 | 1018.1 |
| 20260503203025 | 67 | 244 | 5.0 | 12.0 | 0.00 | 0.00 | 0.00 | 44 | 1018.1 |
| 20260503202504 | 67 | 296 | 4.0 | 13.0 | 0.00 | 0.00 | 0.00 | 44 | 1018.2 |
| 20260503202003 | 67 | 214 | 7.0 | 13.0 | 0.00 | 0.00 | 0.00 | 43 | 1018.3 |
| 20260503201503 | 67 | 269 | 3.0 | 10.0 | 0.00 | 0.00 | 0.00 | 43 | 1018.5 |
| 20260503201004 | 67 | 273 | 5.0 | 10.0 | 0.00 | 0.00 | 0.00 | 43 | 1018.7 |
| 20260503200546 | 67 | 234 | 5.0 | 13.0 | 0.00 | 0.00 | 0.00 | 43 | 1018.7 |
| 20260503200003 | 67 | 282 | 5.0 | 13.0 | 0.00 | 0.00 | 0.00 | 43 | 1018.8 |
| 20260503195525 | 67 | 246 | 4.0 | 10.0 | 0.00 | 0.00 | 0.00 | 46 | 1018.9 |
| 20260503195004 | 66 | 263 | 2.0 | 12.0 | 0.00 | 0.00 | 0.00 | 45 | 1018.9 |
| 20260503194503 | 66 | 294 | 4.0 | 12.0 | 0.00 | 0.00 | 0.00 | 46 | 1019.1 |
| 20260503194004 | 67 | 292 | 5.0 | 10.0 | 0.00 | 0.00 | 0.00 | 45 | 1019.2 |
| 20260503193503 | 67 | 271 | 2.0 | 10.0 | 0.00 | 0.00 | 0.00 | 45 | 1019.3 |
| 20260503193025 | 66 | 208 | 4.0 | 12.0 | 0.00 | 0.00 | 0.00 | 45 | 1019.4 |
| 20260503192504 | 66 | 269 | 6.0 | 12.0 | 0.00 | 0.00 | 0.00 | 46 | 1019.5 |
| 20260503192004 | 66 | 303 | 3.0 | 14.0 | 0.00 | 0.00 | 0.00 | 46 | 1019.5 |
| 20260503191504 | 66 | 330 | 7.0 | 14.0 | 0.00 | 0.00 | 0.00 | 47 | 1019.6 |
| 20260503191004 | 66 | 308 | 2.0 | 9.0 | 0.00 | 0.00 | 0.00 | 48 | 1019.7 |
| 20260503190503 | 65 | 200 | 4.0 | 10.0 | 0.00 | 0.00 | 0.00 | 48 | 1019.8 |
| 20260503190003 | 65 | 228 | 5.0 | 10.0 | 0.00 | 0.00 | 0.00 | 48 | 1019.8 |
| 20260503185504 | 65 | 264 | 0.0 | 11.0 | 0.00 | 0.00 | 0.00 | 47 | 1019.9 |
| 20260503185004 | 65 | 306 | 3.0 | 12.0 | 0.00 | 0.00 | 0.00 | 49 | 1020.0 |
| 20260503184503 | 65 | 212 | 7.0 | 13.0 | 0.00 | 0.00 | 0.00 | 49 | 1020.0 |
| 20260503184003 | 64 | 287 | 2.0 | 13.0 | 0.00 | 0.00 | 0.00 | 51 | 1020.0 |
| 20260503183504 | 64 | 293 | 2.0 | 10.0 | 0.00 | 0.00 | 0.00 | 51 | 1019.9 |
| 20260503183005 | 65 | 254 | 2.0 | 12.0 | 0.00 | 0.00 | 0.00 | 51 | 1020.1 |
| 20260503182505 | 64 | 226 | 7.0 | 12.0 | 0.00 | 0.00 | 0.00 | 51 | 1020.1 |
| 20260503182005 | 64 | 238 | 6.0 | 11.0 | 0.00 | 0.00 | 0.00 | 53 | 1020.1 |
| 20260503181504 | 64 | 175 | 4.0 | 11.0 | 0.00 | 0.00 | 0.00 | 52 | 1020.1 |
| 20260503181004 | 64 | 225 | 5.0 | 9.0 | 0.00 | 0.00 | 0.00 | 52 | 1020.2 |
| 20260503180524 | 64 | 236 | 2.0 | 9.0 | 0.00 | 0.00 | 0.00 | 52 | 1020.2 |
| 20260503180004 | 64 | 305 | 1.0 | 10.0 | 0.00 | 0.00 | 0.00 | 52 | 1020.2 |
| 20260503175504 | 64 | 340 | 6.0 | 13.0 | 0.00 | 0.00 | 0.00 | 52 | 1020.3 |
| 20260503175026 | 64 | 296 | 6.0 | 13.0 | 0.00 | 0.00 | 0.00 | 53 | 1020.4 |
| 20260503174505 | 64 | 225 | 5.0 | 11.0 | 0.00 | 0.00 | 0.00 | 53 | 1020.5 |
| 20260503174004 | 64 | 244 | 3.0 | 11.0 | 0.00 | 0.00 | 0.00 | 53 | 1020.5 |
| 20260503173503 | 64 | 193 | 3.0 | 10.0 | 0.00 | 0.00 | 0.00 | 54 | 1020.5 |
| 20260503173003 | 64 | 210 | 4.0 | 12.0 | 0.00 | 0.00 | 0.00 | 54 | 1020.6 |
| 20260503172504 | 63 | 228 | 5.0 | 12.0 | 0.00 | 0.00 | 0.00 | 55 | 1020.7 |
| 20260503172003 | 62 | 306 | 4.0 | 10.0 | 0.00 | 0.00 | 0.00 | 55 | 1020.8 |
| 20260503171524 | 62 | 307 | 1.0 | 9.0 | 0.00 | 0.00 | 0.00 | 55 | 1020.8 |
| 20260503171004 | 62 | 353 | 2.0 | 9.0 | 0.00 | 0.00 | 0.00 | 55 | 1020.9 |
| 20260503170504 | 61 | 295 | 3.0 | 11.0 | 0.00 | 0.00 | 0.00 | 53 | 1020.9 |
| 20260503151003 | 57 | 191 | 0.0 | 5.0 | 0.00 | 0.00 | 0.00 | 66 | 1021.7 |
| 20260503150503 | 56 | 205 | 3.0 | 5.0 | 0.00 | 0.00 | 0.00 | 67 | 1021.7 |
| 20260503131003 | 50 | 345 | 0.0 | 6.0 | 0.00 | 0.00 | 0.00 | 92 | 1021.4 |
| 20260503130524 | 49 | 314 | 0.0 | 8.0 | 0.00 | 0.00 | 0.00 | 93 | 1021.4 |